User: anonymous   Login
Location: Unspecified
(0.0000°N, 0.0000°E)
Time: 14:07:48
(UTC+00:00)
Language:

Marecs 2 - Orbit

View from above orbital plane
View from above orbital plane
View from above satellite
View from above satellite

Ground track
Ground track

The orbit data is extracted from the following two-line orbital elements,

1 15386U 84114B   18113.77807380 -.00000170 +00000-0 +00000-0 0  9994
2 15386 016.5073 356.6928 0118754 339.5021 199.6534 00.95928096084125
Epoch (UTC): 23 April 2018 18:40:25
Eccentricity: 0.0118754
inclination: 16.5073°
perigee height: 36534 km
apogee height: 37565 km
right ascension of ascending node: 356.6928°
argument of perigee: 339.5021°
revolutions per day: 0.95928096
mean anomaly at epoch: 199.6534°
orbit number at epoch: 8412

The dashed part of the orbit path shows where the satellite is in the earth's shadow,  

DLR